Regional Weather Roundup
Issued by NWS Portland, ME

Current Version | Previous Version | Text Only | Print | Product List | Glossary Off
Versions: 1 2 3 4 5 6 7 8 9 10 11 12 13 14 15 16 17 18 19 20 21 22 23 24 25 26 27 28 29 30 31 32 33 34 35 36 37 38 39 40 41 42 43 44 45 46 47 48 49 50
000 ASUS41 KGYX 211610 RWRGYX WEATHER ROUNDUP FOR MAINE AND NEW HAMPSHIRE NATIONAL WEATHER SERVICE GRAY ME 1200 PM EDT MON JUN 21 2021 MEZ002-005-006-010-012-015-018-020-021-024-026-027-029-211700- MAINE CITY SKY/WX TMP DP RH WIND PRES REMARKS PORTLAND MOSUNNY 75 66 73 S12G20 29.71F SANFORD SUNNY 87 71 58 S13G18 29.69F HX 93 BAR HARBOR SUNNY 77 69 76 SW13 29.76F WISCASSET SUNNY 75 66 73 S8 29.75F ROCKLAND PTSUNNY 68 64 87 S13 29.76F FRYEBURG PTSUNNY 86 67 52 S12G18 29.68F LEWISTONAUBURN MOSUNNY 83 70 64 S10 29.69F AUGUSTA MOSUNNY 83 68 60 S10G21 29.71F WATERVILLE SUNNY 82 70 66 S9 29.69F BANGOR PTSUNNY 80 67 64 S20G29 29.73F GREENVILLE N/A 73 62 68 MISG 29.71F MILLINOCKET PTSUNNY 82 63 52 VRB7 29.71F HOULTON MOSUNNY 83 60 45 S9G22 29.69F PRESQUE ISLE MOSUNNY 81 63 54 SE13 29.68F FRENCHVILLE MOSUNNY 78 57 48 SE14G22 29.68F CARIBOU MOSUNNY 80 60 50 S13 29.68F $$ NHZ002-005-008-009-011-012-014-211700- NEW HAMPSHIRE CITY SKY/WX TMP DP RH WIND PRES REMARKS PORTSMOUTH PTSUNNY 84 69 60 SE12 29.71F ROCHESTER SUNNY 88 70 55 VRB7 29.69F HX 93 NASHUA MOSUNNY 88 72 58 S9 29.69F HX 94 MANCHESTER PTSUNNY 88 69 53 S9 29.67F HX 92 CONCORD PTSUNNY 88 70 55 SE9 29.67F HX 93 LACONIA MOSUNNY 86 71 60 S10G18 29.67F HX 91 PLYMOUTH FAIR 83 69 62 CALM 29.66F BERLIN PTSUNNY 83 65 54 S15G23 29.66F WHITEFIELD MOSUNNY 87 63 44 S10G23 29.65F JAFFREY SUNNY 86 64 47 S16G26 29.73F KEENE MOSUNNY 86 67 52 S13 29.68F LEBANON SUNNY 89 67 47 S20G25 29.63F HX 92 MT WASHINGTON FOG 57 57 100 SW23G46 N/A VSB 0 $$ VTZ005-007-008-211700- VERMONT CITY SKY/WX TMP DP RH WIND PRES REMARKS ST JOHNSBURY N/A 85 68 56 MISG 29.60F MONTPELIER MOSUNNY 85 68 56 S17G25 29.66F BURLINGTON PTSUNNY 85 69 58 S14G28 29.55F $$ MAZ007-012-024-CTZ003-RIZ002-NYZ038-NYZ072-211700- SOUTHERN NEW ENGLAND AND NY CITY SKY/WX TMP DP RH WIND PRES REMARKS BOSTON MOSUNNY 86 69 56 S18 29.72F HX 90 WORCESTER MOSUNNY 82 68 62 S16 29.75F NANTUCKET N/A 72 68 87 S13 29.81F FOG PROVIDENCE MOSUNNY 78 70 76 SE14 29.76F HARTFORD PTSUNNY 81 70 69 S14 29.71F ALBANY PTSUNNY 83 70 64 S16G30 29.62F NEW YORK CITY PTSUNNY 83 69 62 SW14 29.71F $$ ANZ081-ANZ082-ANZ150-NHZ014-MEZ023>029-211700- COASTAL MARINE OBSERVATIONS STATION/POSITION TIME TEMP WIND PRES WAVE AIR SEA DIR/SP/G HT/PER (UTC) (F) (DEG/KT/KT) (MB) (FT/S) MOUNT DESERT ROC 1600 160/ 16/ 17 1008.3F ISLE OF SHOALS 1600 64 160/ 26/ 27 1005.4F JEFFREYS LEDGE 1556 60 N/A 4/ 4 $$ .............KEY.............. WCI - WIND CHILL TC - TEMPERATURE IN CELSIUS VSB - VISIBILITY IN MILES HX - HEAT INDEX FAIR- INDICATES FEW OR NO CLOUDS BELOW 12,000 FT, WITH NO SIGNIFICANT WEATHER AND/OR OBSTRUCTIONS TO VISIBILITY.

USA.gov is the U.S. government's official web portal to all federal, state and local government web resources and services.